NAO YWSL-YSCB

Flight info

Callsign NAO
Flight time 0h 48m
Altitude 19000
Route ESL W290 COM/N0312F180 W290 CB
Aircraft B350/L-SDFGRW/S

Departure

Time 2026-05-06 04:53
Airport West Sale Airport (YWSL)

Arrival

Time 2026-05-06 05:41
Airport Canberra Airport (YSCB)
Time Latitude Longitude Altitude Speed Heading
2026-05-06 04:27 -38.09329 146.97209 81 ft 0 kts 201°
2026-05-06 04:46 -38.09329 146.97218 78 ft 4 kts 30°
2026-05-06 04:47 -38.09321 146.97221 69 ft 0 kts
2026-05-06 04:50 -38.09320 146.97221 69 ft 0 kts
2026-05-06 04:50 -38.09314 146.97225 75 ft 2 kts 57°
2026-05-06 04:51 -38.09312 146.97269 77 ft 8 kts 83°
2026-05-06 04:51 -38.09276 146.97346 74 ft 10 kts 33°
2026-05-06 04:51 -38.09273 146.97348 73 ft 0 kts 33°
2026-05-06 04:52 -38.09256 146.97361 75 ft 8 kts 24°
2026-05-06 04:52 -38.09195 146.97359 73 ft 8 kts 319°
2026-05-06 04:52 -38.09191 146.97349 70 ft 0 kts 272°
2026-05-06 04:52 -38.09190 146.97333 74 ft 20 kts 276°
2026-05-06 04:53 -38.09117 146.96760 74 ft 101 kts 279°
2026-05-06 04:53 -38.08998 146.95775 457 ft 122 kts 280°
2026-05-06 04:53 -38.08887 146.94666 927 ft 131 kts 260°
2026-05-06 04:53 -38.09467 146.93779 1467 ft 145 kts 205°
2026-05-06 04:54 -38.10530 146.93607 1999 ft 163 kts 180°
2026-05-06 04:54 -38.11567 146.94292 2541 ft 181 kts 134°
2026-05-06 04:54 -38.11983 146.95810 3074 ft 190 kts 86°
2026-05-06 04:54 -38.11618 146.97410 3610 ft 190 kts 56°
2026-05-06 04:55 -38.10887 146.98850 4086 ft 198 kts 52°
2026-05-06 04:55 -38.10133 147.00330 4529 ft 207 kts 60°
2026-05-06 04:55 -38.09727 147.02108 4980 ft 215 kts 86°
2026-05-06 04:55 -38.09845 147.04019 5423 ft 220 kts 101°
2026-05-06 04:56 -38.10115 147.05944 5869 ft 223 kts 100°
2026-05-06 04:56 -38.10331 147.07906 6321 ft 225 kts 98°
2026-05-06 04:56 -38.10524 147.09893 6747 ft 227 kts 99°
2026-05-06 04:56 -38.10723 147.11890 7164 ft 229 kts 99°
2026-05-06 04:57 -38.10927 147.13901 7592 ft 230 kts 99°
2026-05-06 04:57 -38.11130 147.15921 8024 ft 231 kts 100°
2026-05-06 04:57 -38.11282 147.17957 8460 ft 233 kts 89°
2026-05-06 04:57 -38.10736 147.19884 8916 ft 236 kts 53°
2026-05-06 04:58 -38.09601 147.21388 9371 ft 236 kts 42°
2026-05-06 04:58 -38.08381 147.22753 9817 ft 237 kts 33°
2026-05-06 04:58 -38.06877 147.23557 10243 ft 235 kts 13°
2026-05-06 04:58 -38.05291 147.24078 10655 ft 236 kts 11°
2026-05-06 04:59 -38.03698 147.24590 11067 ft 237 kts 13°
2026-05-06 04:59 -38.02140 147.25311 11486 ft 240 kts 25°
2026-05-06 04:59 -38.00765 147.26511 11917 ft 241 kts 40°
2026-05-06 04:59 -37.99515 147.27942 12343 ft 242 kts 41°
2026-05-06 05:00 -37.98225 147.29328 12785 ft 243 kts 38°
2026-05-06 05:00 -37.96905 147.30667 13228 ft 243 kts 37°
2026-05-06 05:00 -37.95601 147.32000 13663 ft 244 kts 38°
2026-05-06 05:00 -37.94286 147.33357 14087 ft 244 kts 38°
2026-05-06 05:01 -37.92969 147.34716 14484 ft 245 kts 37°
2026-05-06 05:01 -37.91647 147.36077 14888 ft 245 kts 38°
2026-05-06 05:01 -37.90322 147.37441 15304 ft 245 kts 38°
2026-05-06 05:01 -37.88995 147.38803 15718 ft 245 kts 38°
2026-05-06 05:02 -37.87669 147.40166 16140 ft 245 kts 38°
2026-05-06 05:02 -37.86344 147.41527 16566 ft 245 kts 38°
2026-05-06 05:02 -37.85026 147.42883 16987 ft 244 kts 38°
2026-05-06 05:02 -37.83705 147.44238 17431 ft 244 kts 38°
2026-05-06 05:03 -37.82387 147.45588 17877 ft 243 kts 38°
2026-05-06 05:03 -37.81074 147.46935 18325 ft 243 kts 38°
2026-05-06 05:03 -37.79750 147.48293 18609 ft 248 kts 38°
2026-05-06 05:03 -37.78390 147.49684 18841 ft 254 kts 38°
2026-05-06 05:04 -37.77000 147.51109 19037 ft 261 kts 38°
2026-05-06 05:04 -37.75548 147.52593 19046 ft 275 kts 38°
2026-05-06 05:04 -37.74036 147.54139 19056 ft 284 kts 38°
2026-05-06 05:04 -37.72477 147.55734 19053 ft 292 kts 38°
2026-05-06 05:05 -37.70883 147.57362 19055 ft 297 kts 38°
2026-05-06 05:05 -37.69261 147.59019 19055 ft 301 kts 38°
2026-05-06 05:05 -37.67623 147.60689 19055 ft 304 kts 38°
2026-05-06 05:05 -37.65993 147.62352 19055 ft 306 kts 38°
2026-05-06 05:06 -37.64327 147.64050 19055 ft 308 kts 38°
2026-05-06 05:06 -37.62654 147.65754 19051 ft 309 kts 38°
2026-05-06 05:06 -37.60978 147.67461 19049 ft 310 kts 38°
2026-05-06 05:06 -37.59294 147.69175 19051 ft 311 kts 37°
2026-05-06 05:07 -37.57609 147.70887 19054 ft 311 kts 37°
2026-05-06 05:07 -37.55921 147.72601 19048 ft 311 kts 37°
2026-05-06 05:07 -37.54235 147.74316 19045 ft 312 kts 37°
2026-05-06 05:07 -37.52549 147.76027 19048 ft 311 kts 37°
2026-05-06 05:08 -37.50862 147.77737 19049 ft 311 kts 37°
2026-05-06 05:08 -37.49176 147.79446 19047 ft 311 kts 37°
2026-05-06 05:08 -37.47492 147.81154 19047 ft 311 kts 37°
2026-05-06 05:08 -37.45811 147.82857 19043 ft 310 kts 37°
2026-05-06 05:09 -37.44139 147.84579 19043 ft 311 kts 38°
2026-05-06 05:09 -37.42503 147.86307 19044 ft 311 kts 38°
2026-05-06 05:09 -37.40839 147.88045 19042 ft 311 kts 37°
2026-05-06 05:09 -37.39166 147.89779 19047 ft 311 kts 37°
2026-05-06 05:10 -37.37499 147.91510 19042 ft 311 kts 38°
2026-05-06 05:10 -37.35827 147.93248 19044 ft 312 kts 38°
2026-05-06 05:10 -37.34155 147.94985 19045 ft 311 kts 37°
2026-05-06 05:10 -37.32482 147.96721 19045 ft 311 kts 37°
2026-05-06 05:11 -37.30811 147.98453 19044 ft 311 kts 37°
2026-05-06 05:11 -37.29143 148.00181 19048 ft 311 kts 37°
2026-05-06 05:11 -37.27476 148.01911 19050 ft 311 kts 37°
2026-05-06 05:11 -37.25804 148.03641 19048 ft 311 kts 37°
2026-05-06 05:12 -37.24132 148.05369 19048 ft 311 kts 37°
2026-05-06 05:12 -37.22465 148.07093 19049 ft 311 kts 37°
2026-05-06 05:12 -37.20799 148.08816 19048 ft 310 kts 37°
2026-05-06 05:12 -37.19132 148.10535 19048 ft 310 kts 37°
2026-05-06 05:13 -37.17468 148.12252 19049 ft 310 kts 37°
2026-05-06 05:13 -37.15821 148.13954 19047 ft 310 kts 37°
2026-05-06 05:13 -37.14152 148.15675 19047 ft 310 kts 37°
2026-05-06 05:13 -37.12484 148.17392 19050 ft 310 kts 37°
2026-05-06 05:14 -37.10815 148.19110 19045 ft 310 kts 36°
2026-05-06 05:14 -37.09145 148.20828 19040 ft 310 kts 36°
2026-05-06 05:14 -37.07484 148.22539 19040 ft 309 kts 36°
2026-05-06 05:14 -37.05821 148.24247 19043 ft 308 kts 36°
2026-05-06 05:15 -37.04182 148.25929 19038 ft 308 kts 36°
2026-05-06 05:15 -37.02525 148.27631 19040 ft 308 kts 36°
2026-05-06 05:15 -37.00866 148.29334 19039 ft 308 kts 36°
2026-05-06 05:15 -36.99207 148.31036 19037 ft 308 kts 36°
2026-05-06 05:16 -36.97544 148.32740 19039 ft 308 kts 36°
2026-05-06 05:16 -36.95883 148.34440 19036 ft 308 kts 36°
2026-05-06 05:16 -36.94223 148.36140 19033 ft 308 kts 36°
2026-05-06 05:16 -36.92585 148.37817 19036 ft 308 kts 36°
2026-05-06 05:17 -36.90927 148.39509 19031 ft 307 kts 36°
2026-05-06 05:17 -36.89271 148.41204 19032 ft 307 kts 36°
2026-05-06 05:17 -36.87620 148.42892 19030 ft 307 kts 36°
2026-05-06 05:17 -36.85961 148.44582 19027 ft 308 kts 36°
2026-05-06 05:18 -36.84305 148.46271 19028 ft 308 kts 36°
2026-05-06 05:18 -36.82646 148.47964 19028 ft 308 kts 36°
2026-05-06 05:18 -36.80988 148.49653 19027 ft 308 kts 36°
2026-05-06 05:18 -36.79328 148.51345 19027 ft 307 kts 36°
2026-05-06 05:19 -36.77672 148.53031 19025 ft 307 kts 35°
2026-05-06 05:19 -36.76015 148.54714 19024 ft 307 kts 35°
2026-05-06 05:19 -36.74355 148.56404 19023 ft 307 kts 35°
2026-05-06 05:19 -36.72694 148.58089 19023 ft 307 kts 35°
2026-05-06 05:20 -36.71059 148.59753 19022 ft 307 kts 35°
2026-05-06 05:20 -36.69400 148.61436 19018 ft 308 kts 35°
2026-05-06 05:20 -36.67743 148.63115 19016 ft 306 kts 35°
2026-05-06 05:20 -36.66642 148.64229 19016 ft 307 kts 35°
2026-05-06 05:21 -36.64986 148.65910 19019 ft 307 kts 35°
2026-05-06 05:21 -36.63323 148.67593 19015 ft 307 kts 35°
2026-05-06 05:21 -36.61662 148.69275 19017 ft 307 kts 35°
2026-05-06 05:21 -36.60002 148.70952 19016 ft 307 kts 35°
2026-05-06 05:22 -36.58344 148.72630 19014 ft 307 kts 35°
2026-05-06 05:22 -36.56706 148.74285 19013 ft 307 kts 35°
2026-05-06 05:22 -36.55047 148.75961 19010 ft 307 kts 34°
2026-05-06 05:22 -36.53393 148.77630 19008 ft 306 kts 34°
2026-05-06 05:23 -36.51737 148.79300 19007 ft 306 kts 34°
2026-05-06 05:23 -36.50080 148.80971 19005 ft 306 kts 34°
2026-05-06 05:23 -36.46773 148.84302 19003 ft 306 kts 34°
2026-05-06 05:24 -36.45116 148.85970 19002 ft 306 kts 34°
2026-05-06 05:24 -36.43462 148.87632 19003 ft 306 kts 34°
2026-05-06 05:24 -36.41831 148.89273 19004 ft 306 kts 34°
2026-05-06 05:24 -36.40176 148.90935 19002 ft 306 kts 34°
2026-05-06 05:25 -36.38524 148.92595 18987 ft 306 kts 34°
2026-05-06 05:25 -36.36854 148.94262 18870 ft 310 kts 33°
2026-05-06 05:25 -36.35023 148.95634 18757 ft 306 kts 18°
2026-05-06 05:25 -36.33004 148.96382 18648 ft 301 kts
2026-05-06 05:26 -36.30927 148.96771 18536 ft 302 kts
2026-05-06 05:26 -36.28844 148.97191 18419 ft 304 kts
2026-05-06 05:26 -36.26767 148.97681 18304 ft 305 kts
2026-05-06 05:26 -36.24683 148.98165 18180 ft 305 kts
2026-05-06 05:27 -36.22595 148.98628 18039 ft 305 kts
2026-05-06 05:27 -36.20515 148.99091 18029 ft 302 kts
2026-05-06 05:27 -36.18461 148.99555 18028 ft 299 kts
2026-05-06 05:27 -36.16420 149.00011 18033 ft 297 kts
2026-05-06 05:28 -36.14389 149.00466 18029 ft 295 kts
2026-05-06 05:28 -36.12365 149.00920 18033 ft 295 kts
2026-05-06 05:28 -36.10345 149.01372 18033 ft 295 kts
2026-05-06 05:28 -36.08352 149.01817 18028 ft 294 kts
2026-05-06 05:29 -36.06336 149.02268 18027 ft 294 kts
2026-05-06 05:29 -36.04323 149.02717 18032 ft 294 kts
2026-05-06 05:29 -36.02302 149.03169 17799 ft 296 kts
2026-05-06 05:29 -36.00270 149.03622 17483 ft 296 kts
2026-05-06 05:30 -35.98240 149.04076 17174 ft 295 kts
2026-05-06 05:30 -35.96231 149.04525 16785 ft 292 kts
2026-05-06 05:30 -35.94238 149.04969 16405 ft 289 kts
2026-05-06 05:30 -35.92262 149.05406 16022 ft 288 kts
2026-05-06 05:31 -35.90321 149.05841 15660 ft 286 kts
2026-05-06 05:31 -35.88368 149.06276 15291 ft 285 kts
2026-05-06 05:31 -35.86424 149.06709 14930 ft 284 kts
2026-05-06 05:31 -35.84483 149.07135 14570 ft 283 kts
2026-05-06 05:32 -35.82546 149.07569 14218 ft 283 kts
2026-05-06 05:32 -35.80612 149.08000 13868 ft 282 kts
2026-05-06 05:32 -35.78676 149.08428 13474 ft 283 kts
2026-05-06 05:32 -35.76739 149.08858 13087 ft 283 kts
2026-05-06 05:33 -35.74801 149.09289 12703 ft 282 kts
2026-05-06 05:33 -35.72870 149.09716 12317 ft 281 kts
2026-05-06 05:33 -35.70943 149.10144 11941 ft 280 kts
2026-05-06 05:33 -35.69019 149.10571 11572 ft 279 kts
2026-05-06 05:34 -35.67135 149.10985 11203 ft 277 kts
2026-05-06 05:34 -35.65242 149.11404 10840 ft 275 kts
2026-05-06 05:34 -35.63364 149.11822 10489 ft 273 kts
2026-05-06 05:34 -35.61517 149.12230 10138 ft 263 kts
2026-05-06 05:35 -35.59756 149.12622 9765 ft 252 kts
2026-05-06 05:35 -35.58058 149.12996 9366 ft 244 kts
2026-05-06 05:35 -35.56425 149.13466 8976 ft 239 kts 14°
2026-05-06 05:35 -35.54857 149.14088 8598 ft 234 kts 15°
2026-05-06 05:36 -35.53311 149.14668 8244 ft 230 kts 13°
2026-05-06 05:36 -35.51783 149.15202 7891 ft 227 kts 13°
2026-05-06 05:36 -35.50273 149.15728 7545 ft 224 kts 13°
2026-05-06 05:36 -35.48794 149.16257 7198 ft 220 kts 13°
2026-05-06 05:37 -35.47339 149.16777 6853 ft 214 kts 13°
2026-05-06 05:37 -35.45942 149.17271 6455 ft 209 kts 13°
2026-05-06 05:37 -35.44552 149.17762 6033 ft 206 kts 12°
2026-05-06 05:37 -35.43197 149.18239 5575 ft 200 kts 12°
2026-05-06 05:38 -35.41874 149.18708 5080 ft 195 kts 12°
2026-05-06 05:38 -35.40591 149.19169 4580 ft 187 kts 13°
2026-05-06 05:38 -35.39406 149.19462 4061 ft 161 kts 356°
2026-05-06 05:38 -35.38330 149.19436 3551 ft 150 kts 355°
2026-05-06 05:39 -35.37338 149.19450 3184 ft 137 kts 355°
2026-05-06 05:39 -35.36426 149.19449 2882 ft 126 kts 354°
2026-05-06 05:39 -35.35587 149.19397 2640 ft 115 kts 356°
2026-05-06 05:39 -35.34807 149.19434 2425 ft 108 kts
2026-05-06 05:40 -35.34086 149.19450 2247 ft 99 kts 356°
2026-05-06 05:40 -35.33398 149.19464 2076 ft 100 kts 358°
2026-05-06 05:40 -35.32701 149.19425 2031 ft 103 kts 357°
2026-05-06 05:40 -35.31977 149.19439 1949 ft 105 kts 355°
2026-05-06 05:41 -35.31248 149.19447 1915 ft 104 kts
2026-05-06 05:41 -35.30519 149.19449 1881 ft 104 kts 360°
2026-05-06 05:41 -35.30187 149.19444 1877 ft 5 kts 349°
2026-05-06 05:41 -35.30148 149.19443 1876 ft 17 kts 359°
2026-05-06 05:42 -35.30031 149.19443 1876 ft 16 kts 357°
2026-05-06 05:42 -35.29931 149.19444 1876 ft 13 kts
2026-05-06 05:42 -35.29850 149.19448 1876 ft 10 kts
2026-05-06 05:42 -35.29789 149.19444 1876 ft 8 kts 358°
2026-05-06 05:43 -35.29730 149.19443 1877 ft 9 kts 360°
2026-05-06 05:43 -35.29669 149.19443 1878 ft 8 kts 356°
2026-05-06 05:43 -35.29616 149.19427 1879 ft 7 kts 329°
2026-05-06 05:43 -35.29587 149.19373 1881 ft 9 kts 281°
2026-05-06 05:44 -35.29585 149.19280 1880 ft 13 kts 252°
2026-05-06 05:44 -35.29681 149.19238 1877 ft 20 kts 180°
2026-05-06 05:44 -35.29848 149.19237 1874 ft 27 kts 180°
2026-05-06 05:44 -35.30038 149.19240 1874 ft 28 kts 179°
2026-05-06 05:45 -35.30191 149.19205 1875 ft 19 kts 220°
2026-05-06 05:45 -35.30298 149.19098 1871 ft 21 kts 217°
2026-05-06 05:45 -35.30395 149.18992 1870 ft 17 kts 238°
2026-05-06 05:45 -35.30437 149.18874 1870 ft 14 kts 247°
2026-05-06 05:46 -35.30438 149.18802 1867 ft 4 kts 324°
2026-05-06 05:46 -35.30429 149.18791 1867 ft 0 kts 308°